Regional Weather Roundup
Issued by NWS Sioux Falls, SD

Home | Current Version | Previous Version | Graphics & Text | Print | Product List | Glossary On
Versions: 1 2 3 4 5 6 7 8 9 10 11 12 13 14 15 16 17 18 19 20 21 22 23 24 25 26 27 28 29 30 31 32 33 34 35 36 37 38 39 40 41 42 43 44 45 46 47 48 49 50
000
ASUS43 KFSD 220902
RWRFSD

WEATHER ROUNDUP FOR SE SOUTH DAKOTA/SW MINNESOTA/NW IOWA
NATIONAL WEATHER SERVICE SIOUX FALLS SD
400 AM CDT THU JUN 22 2017

NOTE: "FAIR" INDICATES FEW OR NO CLOUDS BELOW 12,000 FEET WITH NO
SIGNIFICANT WEATHER AND OR OBSTRUCTIONS TO VISIBILITY.


SDZ038>040-050-052>070-221000-
SOUTHEAST SOUTH DAKOTA

CITY           SKY/WX    TMP DP  RH WIND       PRES   REMARKS
BROOKINGS      CLOUDY    69  52  54 N15G26    29.72R
CHAMBERLAIN    CLOUDY    71  54  55 NE13G22   29.66F
HURON          NOT AVBL
MADISON        PTSUNNY   68  57  68 N18G24    29.71R
MITCHELL       CLOUDY    71  59  65 NE14      29.67R
SIOUX FALLS    CLEAR     71  70  96 N13       29.62F
WINNER         FAIR      68  59  73 E12       29.67F
YANKTON        CLEAR     71  69  93 N7        29.59S
$$

MNZ071-072-080-081-089-090-097-098-221000-
SOUTHWEST MINNESOTA

CITY           SKY/WX    TMP DP  RH WIND       PRES   REMARKS
FAIRMONT       CLEAR     70  65  84 S9        29.62F
JACKSON        CLEAR     70  64  83 S5        29.61F
LUVERNE        CLEAR     68  64  88 N5        29.62F
MARSHALL       CLOUDY    69  67  93 NE8       29.66S
MONTEVIDEO     CLOUDY    70  66  88 E3        29.66F
PIPESTONE      MOCLDY    70  64  83 NE7       29.67R
REDWOOD FALLS  PTCLDY    68  64  87 NW12G18   29.67R
TRACY          MOCLDY    70  68  95 CALM      29.66R
WINDOM         CLEAR     70  66  88 CALM      29.62F
WORTHINGTON    CLEAR     70  66  87 CALM      29.62F
$$

IAZ001>003-012>014-020>022-031-032-NEZ013-014-SDZ071-221000-
NORTHWEST IOWA

CITY           SKY/WX    TMP DP  RH WIND       PRES   REMARKS
DENISON        PTCLDY    75  63  64 S13G22    29.67F
ESTHERVILLE    CLOUDY    67  66  97 S7        29.62F
LE MARS        CLOUDY    75  63  64 S14       29.60F
ORANGE CITY    CLOUDY    73  64  73 S9        29.60F
SHELDON        PTCLDY    72  63  73 S8        29.59F
SIOUX CITY     CLOUDY    76  60  57 S8        29.62F
SPENCER        CLOUDY    72  62  71 SE5       29.63F
STORM LAKE     CLOUDY    75  63  64 S14G20    29.65F
$$

ABBREVIATIONS USED IN REMARKS
   TC - TEMPERATURE IN CELSIUS
  WCI - WIND CHILL INDEX
   HX - HEAT INDEX
  VSB - VISIBILITY





USA.gov is the U.S. government's official web portal to all federal, state and local government web resources and services.